{"data":{"norad_id":66268,"intl_designator":"2025-247D","name":"STARLINK-35069","alt_names":[],"object_type":"PAYLOAD","status":"ACTIVE","operator":null,"country":"US","launch_date":"2025-10-31","launch_site_code":"AFWTR","launch_vehicle":null,"mission":null,"orbit_class":"UNKNOWN","rcs_meters":null,"size_class":null,"mass_kg":null,"dimensions":null,"purposes":["comms"],"wikipedia_slug":null,"has_3d_model":false,"image_url":null,"decayed_at":null,"tle_current":{"epoch":"2026-05-25T04:41:09.688128Z","epoch_age_seconds":58966,"freshness":"FRESH","line1":"1 66268U 25247D   26145.19525102  .00012405  00000+0  43015-3 0  9998","line2":"2 66268  53.1590 196.3237 0001166  79.6506 280.4626 15.30208478 32743","mean_motion":15.30208478,"eccentricity":0.0001166,"inclination_deg":53.159,"raan_deg":196.3237,"arg_perigee_deg":79.6506,"mean_anomaly_deg":280.4626,"bstar":0.00043015,"rev_number":3274,"period_min":94.10482432316,"perigee_km":474.39065785665,"apogee_km":475.98885365609,"semimajor_km":6853.3267557564,"source":"CELESTRAK","updated_at":"2026-05-25T13:38:21.160028Z"}}}